Location: Unspecified
(40.9447°N, 78.9903°W)
Time: 13:24:16
(UTC-04:00)

Cosmos 1674 - Pass Details

Date: 04 August 2021
Orbit: 491 x 516 km, 82.5° (Epoch: 23 September)

Event Time Altitude Azimuth Distance (km) Brightness Sun altitude
Rises 03:14:18 0° 353° (N) 2,644 7.1 -26.3°
Reaches altitude 10° 03:16:28 10° 355° (N) 1,749 6.1 -26.1°
Enters shadow 03:19:12 45° 6° (N) 714 3.7 -25.9°
